Regional Weather Roundup
Issued by NWS

Home | Current Version | Previous Version | Text Only | Print | Product List | Glossary Off
Versions: 1 2 3 4 5 6 7 8 9 10 11 12 13 14 15 16 17 18 19 20 21 22 23 24 25 26 27 28 29 30 31 32 33 34 35 36 37 38 39 40 41 42 43 44 45 46 47

000
ASUS45 KTFX 031810
RWRMT
MONTANA REGIONAL WEATHER ROUNDUP
NATIONAL WEATHER SERVICE GREAT FALLS MT
1200 PM MDT TUE MAY 03 2016

NOTE: "FAIR" INDICATES FEW OR NO CLOUDS BELOW 12000 FEET WITH NO
SIGNIFICANT WEATHER AND/OR OBSTRUCTIONS TO VISIBILITY.

MTZ001>007-043-031900-
WEST OF THE DIVIDE

CITY           SKY/WX    TMP DP  RH WIND       PRES   REMARKS
KALISPELL      SUNNY     67  39  35 S6        30.14F
MISSOULA       SUNNY     64  39  39 CALM      30.18F
BUTTE          SUNNY     66  24  20 CALM      30.22F
MULLAN PASS    SUNNY     60  33  36 CALM      30.24S
$$

MTZ008-052>055-031900-
SOUTHWEST MONTANA

CITY           SKY/WX    TMP DP  RH WIND       PRES   REMARKS
BOZEMAN        SUNNY     67  33  28 VRB3      30.20F
DILLON         SUNNY     64  20  18 W5        30.22F
ENNIS          SUNNY     66  27  22 CALM      30.27F
$$

MTZ009-010-012-014-046-048-049-054-031900-
EAST SLOPES AND CENTRAL MONTANA

CITY           SKY/WX    TMP DP  RH WIND       PRES   REMARKS
CUT BANK       SUNNY     71  33  24 CALM      30.11S
GREAT FALLS    SUNNY     71  34  25 SW9       30.12S
MALMSTROM AFB  SUNNY     71  38  29 W7        30.12S
HELENA         SUNNY     66  35  31 VRB3      30.18S
$$

MTZ011-013-016-021-045-047-050-051-031900-
NORTH CENTRAL MONTANA

CITY           SKY/WX    TMP DP  RH WIND       PRES   REMARKS
HAVRE          SUNNY     71  45  39 S5        30.10F
LEWISTOWN      SUNNY     73  32  22 CALM      30.15S
N BAR RANCH      N/A     68  34  28 VRB6G13   30.18F
$$

MTZ017>020-022>027-061-062-031900-
NORTHEAST MONTANA

CITY           SKY/WX    TMP DP  RH WIND       PRES   REMARKS
GLASGOW        SUNNY     74  37  26 VRB3      30.09S
JORDAN           N/A     75  39  27 NE5       30.10F
SIDNEY         SUNNY     73  36  25 N8        30.08S
WOLF POINT     SUNNY     77  39  25 CALM      30.08S
$$

MTZ028>42-056>058-031900-
SOUTHCENTRAL AND SOUTHEAST MONTANA

CITY           SKY/WX    TMP DP  RH WIND       PRES   REMARKS
BAKER          SUNNY     72  34  24 VRB3      30.11F
BILLINGS       MOSUNNY   68  35  29 SW8       30.17F
LIVINGSTON     SUNNY     71  31  22 NW9       30.18F
MILES CITY     SUNNY     72  37  28 VRB3      30.11S
$$

REGIONAL REPORTS...DAKOTAS

CITY           SKY/WX    TMP DP  RH WIND       PRES   REMARKS
WILLISTON      SUNNY     77  36  22 NW14G21   30.06S
MINOT          SUNNY     76  29  17 N17       30.01S
DICKINSON      SUNNY     73  34  23 N10       30.04F
BEACH            N/A     72  32  23 N8G18     30.12S
CROSBY           N/A     75  36  23 NW9       30.07S
TIOGA            N/A     73  32  21 N18       30.10S
WATFORD CITY     N/A     75  36  23 N10       30.06F
BISMARCK       SUNNY     75  37  25 N20       29.98F
GRAND FORKS    MOSUNNY   67  33  28 N24G35    29.88S
FARGO          SUNNY     71  28  20 N22G33    29.84S
BUFFALO SD       N/A     71  32  23 NW12      30.03F
RAPID CITY     SUNNY     68  37  32 N14G21    30.11S
$$

REGIONAL REPORTS...WYOMING/IDAHO/WASHINGTON

CITY           SKY/WX    TMP DP  RH WIND       PRES   REMARKS
GILLETTE       SUNNY     66  40  38 N12       30.18S
SHERIDAN       SUNNY     70  37  29 VRB3      30.18S
CODY           SUNNY     66  32  28 E7        30.21S
IDAHO FALLS    SUNNY     65  29  25 CALM      30.26F
SALMON         SUNNY     61  32  33 NW3       30.19F
BOISE          SUNNY     72  36  26 SE8       30.15F
SPOKANE        MOSUNNY   73  44  35 E5        30.08F
$$

REGIONAL REPORTS...ALBERTA

CITY           SKY/WX    TMP DP  RH WIND       PRES   REMARKS
EDMONTON       MOSUNNY   79  37  22 W7        29.94S
CALGARY        MOSUNNY   75  32  20 NE9       30.04F
LETHBRIDGE     SUNNY     79  27  14 W14G28    30.03F
MEDICINE HAT   MOSUNNY   79  39  24 S9G20     30.04S
WATERTON GATE    N/A     73  28  19 SW13G21     N/A
CARDSTON         N/A     75  28  17 W9          N/A
MILK RIVER       N/A     75  34  22 W7          N/A
ONEFOUR          N/A     72  37  28 SE10        N/A
$$

REGIONAL REPORTS...SASKATCHEWAN

CITY           SKY/WX    TMP DP  RH WIND       PRES   REMARKS
SWIFT CURRENT  SUNNY     75  36  23 VRB2      30.07F
REGINA         MOSUNNY   75  37  25 VRB3      30.05F
SASKATOON      PTSUNNY   79  39  24 SW7       30.04F
CYPRESS HILLS    N/A     70  34  26 S7          N/A
VAL MARIE        N/A     75  34  22 W2          N/A
ROCKGLEN         N/A     75  34  22 E3          N/A
ASSINIBOIA       N/A     84  34  16 S13G28      N/A
$$



USA.gov is the U.S. government's official web portal to all federal, state and local government web resources and services.